Location: Sewell
(39.7660°N, 75.1450°W)
Time: 02:45:46
(UTC-04:00)

ISS - Visible Passes

Search period start: 31 August 2015 00:00
Search period end: 10 September 2015 00:00
Orbit: 399 x 401 km, 51.6° (Epoch: 30 August)

Date Brightness Start Highest point End Pass type
(mag) Time Alt. Az. Time Alt. Az. Time Alt. Az.
07 Sep -0.3 05:22:54 10° SE 05:23:30 10° SE 05:24:15 10° ESE visible
08 Sep -2.6 06:02:46 10° SW 06:05:55 50° SE 06:09:05 10° ENE visible
09 Sep -1.4 05:10:38 16° S 05:12:23 24° SE 05:15:07 10° ENE visible
